FW5813 Weather Reports


time (UTC)temp
C
wind
direction
speed
KPH
gust
KPH
rain 1hr
cm
rain 24hr
cm
rain mn
cm
humidity
%
barometer
mb
20260504044237 12 161 1.6 4.8 0.00 0.00 0.00 67 1013.3
20260504043738 12 200 3.2 4.8 0.00 0.00 0.00 68 1013.7
20260504043237 12 205 0.0 3.2 0.00 0.00 0.00 68 1013.4
20260504042737 12 34 0.0 3.2 0.00 0.00 0.00 68 1013.5
20260504041238 11 50 0.0 3.2 0.00 0.00 0.00 71 1013.3
20260504040737 11 32 0.0 3.2 0.00 0.00 0.00 71 1013.3
20260504040237 11 59 0.0 3.2 0.00 0.00 0.00 71 1013.2
20260504035237 11 64 3.2 3.2 0.00 0.00 0.00 71 1013.4
20260504034737 11 38 0.0 3.2 0.00 0.00 0.00 70 1013.1
20260504034238 11 28 1.6 3.2 0.00 0.00 0.00 70 1013.3
20260504033738 11 19 0.0 3.2 0.00 0.00 0.00 69 1013.3
20260504032738 11 29 0.0 3.2 0.00 0.00 0.00 68 1013.5
20260504032237 12 197 0.0 6.4 0.00 0.00 0.00 67 1013.4
20260504031737 12 230 0.0 6.4 0.00 0.00 0.00 67 1013.3
20260504031238 11 35 0.0 6.4 0.00 0.00 0.00 67 1013.4
20260504030737 11 62 1.6 8.0 0.00 0.00 0.00 68 1013.7
20260504025738 11 58 1.6 3.2 0.00 0.00 0.00 67 1013.3
20260504025236 12 241 1.6 3.2 0.00 0.00 0.00 64 1013.3
20260504024737 12 126 0.0 4.8 0.00 0.00 0.00 63 1013.2
20260504023738 13 150 3.2 6.4 0.00 0.00 0.00 61 1013.3
20260504023237 13 214 1.6 6.4 0.00 0.00 0.00 61 1013.4
20260504022737 13 240 3.2 6.4 0.00 0.00 0.00 61 1013.4
20260504022237 13 124 0.0 6.4 0.00 0.00 0.00 61 1013.4
20260504021236 13 210 4.8 8.0 0.00 0.00 0.00 59 1013.3
20260504020239 13 172 4.8 12.9 0.00 0.00 0.00 58 1013.3
20260504015737 13 110 0.0 12.9 0.00 0.00 0.00 58 1013.2
20260504015238 13 208 4.8 11.3 0.00 0.00 0.00 58 1013.2
20260504014238 13 194 8.0 16.1 0.00 0.00 0.00 58 1013.1
20260504013738 14 199 4.8 16.1 0.00 0.00 0.00 57 1013.1
20260504012738 14 175 1.6 11.3 0.00 0.00 0.00 56 1013.1
20260504012237 14 181 4.8 11.3 0.00 0.00 0.00 56 1013.2
20260504011737 14 190 3.2 14.5 0.00 0.00 0.00 55 1013.1
20260504011238 14 240 1.6 14.5 0.00 0.00 0.00 55 1013.0
20260504010737 14 194 3.2 14.5 0.00 0.00 0.00 55 1013.0
20260504010238 14 211 9.7 11.3 0.00 0.00 0.00 55 1013.0
20260504005238 15 213 4.8 12.9 0.00 0.00 0.00 55 1013.0
20260504004737 14 159 4.8 11.3 0.00 0.00 0.00 55 1013.2
20260504004238 15 185 6.4 9.7 0.00 0.00 0.00 55 1013.2
20260504003738 15 186 4.8 9.7 0.00 0.00 0.00 55 1013.2
20260504003238 15 207 3.2 9.7 0.00 0.00 0.00 55 1013.3
20260504002737 15 211 6.4 11.3 0.00 0.00 0.00 54 1013.2
20260504001737 15 187 3.2 9.7 0.00 0.00 0.00 54 1013.2
20260504001237 15 184 4.8 9.7 0.00 0.00 0.00 54 1013.1
20260504000737 15 202 4.8 11.3 0.00 0.00 0.00 54 1013.4
20260503235737 15 174 1.6 14.5 0.00 0.00 0.00 53 1013.2
20260503234738 15 195 9.7 17.7 0.00 0.00 0.00 52 1013.1
20260503234236 15 225 3.2 17.7 0.00 0.00 0.00 52 1013.2
20260503233737 15 174 16.1 17.7 0.00 0.00 0.00 51 1013.3
20260503233237 16 137 9.7 19.3 0.00 0.00 0.00 51 1013.3
20260503232737 16 206 8.0 24.1 0.00 0.00 0.00 51 1013.3
20260503232237 16 219 9.7 24.1 0.00 0.00 0.00 50 1013.1
20260503231737 16 208 6.4 19.3 0.00 0.00 0.00 50 1013.0
20260503231236 16 191 3.2 19.3 0.00 0.00 0.00 50 1013.3
20260503230737 16 186 9.7 14.5 0.00 0.00 0.00 50 1013.1
20260503230238 16 154 3.2 14.5 0.00 0.00 0.00 50 1013.4
20260503225736 16 135 3.2 14.5 0.00 0.00 0.00 50 1013.4
20260503224737 16 211 9.7 22.5 0.00 0.00 0.00 49 1013.4
20260503224237 16 202 3.2 22.5 0.00 0.00 0.00 48 1013.3
20260503223736 16 198 6.4 19.3 0.00 0.00 0.00 48 1013.3
20260503223237 16 187 3.2 14.5 0.00 0.00 0.00 48 1013.3
20260503222737 16 184 6.4 14.5 0.00 0.00 0.00 48 1013.1
20260503222237 16 211 6.4 20.9 0.00 0.00 0.00 48 1013.2
20260503221737 16 200 14.5 20.9 0.00 0.00 0.00 47 1013.4
20260503221237 16 166 6.4 11.3 0.00 0.00 0.00 48 1013.5
20260503220237 17 178 8.0 19.3 0.00 0.00 0.00 47 1013.8
20260503215738 17 201 8.0 19.3 0.00 0.00 0.00 47 1013.7
20260503215238 17 173 4.8 17.7 0.00 0.00 0.00 47 1013.8
20260503214737 17 182 8.0 17.7 0.00 0.00 0.00 47 1013.8
20260503214237 17 170 12.9 14.5 0.00 0.00 0.00 47 1013.8
20260503213237 17 211 14.5 20.9 0.00 0.00 0.00 46 1014.0
20260503212737 17 217 3.2 20.9 0.00 0.00 0.00 46 1013.4
20260503212236 17 180 11.3 20.9 0.00 0.00 0.00 46 1013.8
20260503211737 17 175 8.0 20.9 0.00 0.00 0.00 46 1013.8
20260503211237 17 180 4.8 22.5 0.00 0.00 0.00 45 1013.9
20260503210738 17 185 12.9 22.5 0.00 0.00 0.00 45 1013.5
20260503210237 17 226 9.7 19.3 0.00 0.00 0.00 45 1013.7
20260503205737 17 83 4.8 19.3 0.00 0.00 0.00 45 1013.8
20260503205237 18 156 4.8 19.3 0.00 0.00 0.00 45 1013.7
20260503204737 17 185 9.7 17.7 0.00 0.00 0.00 44 1013.8
20260503204238 18 189 12.9 16.1 0.00 0.00 0.00 44 1014.1
20260503203738 18 197 9.7 16.1 0.00 0.00 0.00 44 1014.0
20260503203237 18 183 6.4 20.9 0.00 0.00 0.00 44 1014.0
20260503202237 18 174 6.4 22.5 0.00 0.00 0.00 43 1013.9
20260503201737 18 116 3.2 22.5 0.00 0.00 0.00 43 1013.9
20260503201237 18 175 3.2 16.1 0.00 0.00 0.00 43 1014.0
20260503200739 18 202 3.2 16.1 0.00 0.00 0.00 42 1013.9
20260503200236 18 185 12.9 16.1 0.00 0.00 0.00 42 1014.1
20260503195737 18 207 6.4 30.6 0.00 0.00 0.00 42 1014.1
20260503195237 18 200 8.0 30.6 0.00 0.00 0.00 41 1014.4
20260503194737 18 184 6.4 19.3 0.00 0.00 0.00 41 1014.4
20260503194237 19 198 9.7 19.3 0.00 0.00 0.00 41 1014.2
20260503193739 19 217 11.3 20.9 0.00 0.00 0.00 40 1014.4
20260503193237 19 208 14.5 20.9 0.00 0.00 0.00 40 1014.2
20260503192738 19 223 14.5 20.9 0.00 0.00 0.00 40 1014.2
20260503192238 19 209 6.4 22.5 0.00 0.00 0.00 40 1014.0
20260503191237 20 227 8.0 25.7 0.00 0.00 0.00 40 1014.3
20260503185737 20 200 16.1 29.0 0.00 0.00 0.00 39 1014.2
20260503185237 20 186 4.8 29.0 0.00 0.00 0.00 39 1014.0
20260503184738 20 305 3.2 24.1 0.00 0.00 0.00 39 1013.8
20260503184237 20 141 9.7 24.1 0.00 0.00 0.00 39 1013.8
20260503183738 20 216 8.0 22.5 0.00 0.00 0.00 39 1013.9
20260503183239 20 303 8.0 19.3 0.00 0.00 0.00 39 1014.0
20260503182736 20 191 4.8 19.3 0.00 0.00 0.00 39 1013.8
20260503182237 20 209 9.7 20.9 0.00 0.00 0.00 39 1013.9
20260503181737 20 187 8.0 20.9 0.00 0.00 0.00 38 1013.8
20260503181237 20 144 4.8 17.7 0.00 0.00 0.00 38 1013.8
20260503180738 21 147 9.7 17.7 0.00 0.00 0.00 38 1013.8
20260503180236 21 178 9.7 19.3 0.00 0.00 0.00 38 1013.8
20260503175737 21 173 8.0 19.3 0.00 0.00 0.00 38 1013.5
20260503175237 21 199 11.3 17.7 0.00 0.00 0.00 37 1013.7
20260503174237 21 293 4.8 29.0 0.00 0.00 0.00 37 1013.8
20260503173737 21 220 11.3 29.0 0.00 0.00 0.00 37 1013.7
20260503172237 22 206 14.5 24.1 0.00 0.00 0.00 36 1013.8
20260503171737 22 201 8.0 24.1 0.00 0.00 0.00 36 1013.8
20260503171237 22 189 9.7 17.7 0.00 0.00 0.00 36 1013.9
20260503170737 22 161 8.0 17.7 0.00 0.00 0.00 36 1013.5
20260503170237 22 155 6.4 20.9 0.00 0.00 0.00 35 1013.3
20260503150236 24 189 11.3 27.4 0.00 0.00 0.00 33 1014.3
20260503140237 24 207 22.5 29.0 0.00 0.00 0.00 33 1014.8
20260503131238 24 166 9.7 19.3 0.00 0.00 0.00 34 1015.3
20260503130737 24 166 9.7 19.3 0.00 0.00 0.00 34 1015.6
20260503130237 24 166 9.7 19.3 0.00 0.00 0.00 34 1015.7
20260503110722 22 320 0.0 14.5 0.00 0.00 0.00 39 1017.0
20260503100210 23 355 0.0 0.0 0.00 0.00 0.00 40 1017.7
20260503090210 21 311 0.0 0.0 0.00 0.00 0.00 41 1018.2
20260503081211 20 327 0.0 0.0 0.00 0.00 0.00 44 1018.1
20260503080708 20 321 0.0 0.0 0.00 0.00 0.00 43 1018.2
20260503080208 19 350 0.0 0.0 0.00 0.00 0.00 45 1018.4
20260503072649 17 61 0.0 0.0 0.00 0.00 0.00 48 1018.1
20260503072149 17 325 0.0 0.0 0.00 0.00 0.00 48 1018.2
20260503071648 17 324 0.0 0.0 0.00 0.00 0.00 49 1017.9
20260503071148 16 316 0.0 0.0 0.00 0.00 0.00 49 1018.4
20260503070642 16 63 0.0 0.0 0.00 0.00 0.00 51 1017.9
20260503070141 16 12 0.0 0.0 0.00 0.00 0.00 49 1018.3
20260503060128 12 319 0.0 0.0 0.00 0.00 0.00 66 1018.3
20260503055127 11 265 0.0 0.0 0.00 0.00 0.00 70 1018.3
20260503054627 10 264 0.0 0.0 0.00 0.00 0.00 71 1018.1
20260503054126 10 311 0.0 0.0 0.00 0.00 0.00 71 1018.4
20260503053125 10 311 0.0 0.0 0.00 0.00 0.00 70 1017.7
20260503052626 9 311 0.0 0.0 0.00 0.00 0.00 70 1018.1
20260503052125 9 311 0.0 0.0 0.00 0.00 0.00 70 1018.3
20260503051126 8 311 0.0 0.0 0.00 0.00 0.00 71 1018.2
20260503050625 8 311 0.0 0.0 0.00 0.00 0.00 72 1018.3
20260503050125 8 310 0.0 0.0 0.00 0.00 0.00 73 1017.9
20260503045625 7 310 0.0 0.0 0.00 0.00 0.00 74 1018.2
20260503045125 7 310 0.0 0.0 0.00 0.00 0.00 76 1017.8
20260503044626 6 310 0.0 0.0 0.00 0.00 0.00 78 1017.7